AEHF-2 (USA 235)

Last updated on Wed Sep 17 2025 00:02:47 GMT+0000 (Coordinated Universal Time)

1 38254U 12019A 25259.29491328 -.00000151 00000+0 00000+0 0 9992 2 38254 6.0127 59.3731 0003022 126.4592 259.3351 1.00273530 4243
UTC large
Height (km)
Speed (km/s)
/
Latitude / Longitude
Inclination (degrees)
Orbital Period (minutes)
Azimuth
Elevation
Range (km)
Doppler Factor

Next 0 passes for location: London (51.5072 / 0.1276)

Sorry there are no passes over London.